LAN110 SCEL-SCSE

Flight info

Callsign LAN110
Flight time 0h 49m
Altitude 32000
Route DONTI5B DONTI UQ802 KUGAP KUGAP5
Aircraft A320/M-SDE3FGHIRWY/LB1

Departure

Time 2026-04-20 14:27
Airport Comodoro Arturo Merino Benítez International Airport (SCEL)

Arrival

Time 2026-04-20 15:17
Airport La Florida Airport (SCSE)
Time Latitude Longitude Altitude Speed Heading
2026-04-20 13:42 -33.39603 -70.79606 1565 ft 0 kts 176°
2026-04-20 14:06 -33.39601 -70.79606 1537 ft 2 kts 176°
2026-04-20 14:06 -33.39584 -70.79607 1537 ft 2 kts 176°
2026-04-20 14:06 -33.39568 -70.79608 1570 ft 2 kts 176°
2026-04-20 14:07 -33.39551 -70.79609 1564 ft 2 kts 172°
2026-04-20 14:07 -33.39535 -70.79615 1564 ft 2 kts 137°
2026-04-20 14:07 -33.39527 -70.79626 1564 ft 2 kts 112°
2026-04-20 14:07 -33.39522 -70.79645 1565 ft 2 kts 106°
2026-04-20 14:08 -33.39518 -70.79660 1565 ft 2 kts 88°
2026-04-20 14:08 -33.39519 -70.79679 1565 ft 0 kts 89°
2026-04-20 14:11 -33.39519 -70.79678 1565 ft 1 kts 89°
2026-04-20 14:12 -33.39519 -70.79670 1565 ft 1 kts 89°
2026-04-20 14:12 -33.39519 -70.79654 1565 ft 3 kts 89°
2026-04-20 14:12 -33.39518 -70.79629 1564 ft 2 kts 89°
2026-04-20 14:12 -33.39518 -70.79626 1564 ft 0 kts 88°
2026-04-20 14:13 -33.39518 -70.79625 1564 ft 0 kts 88°
2026-04-20 14:13 -33.39517 -70.79615 1564 ft 2 kts 81°
2026-04-20 14:13 -33.39510 -70.79597 1564 ft 3 kts 55°
2026-04-20 14:13 -33.39490 -70.79585 1564 ft 5 kts 20°
2026-04-20 14:14 -33.39443 -70.79584 1564 ft 9 kts 356°
2026-04-20 14:14 -33.39365 -70.79588 1564 ft 10 kts 357°
2026-04-20 14:14 -33.39334 -70.79615 1564 ft 4 kts 289°
2026-04-20 14:14 -33.39334 -70.79642 1565 ft 5 kts 267°
2026-04-20 14:15 -33.39336 -70.79709 1565 ft 11 kts 268°
2026-04-20 14:15 -33.39340 -70.79821 1565 ft 14 kts 264°
2026-04-20 14:15 -33.39345 -70.79914 1565 ft 8 kts 268°
2026-04-20 14:15 -33.39340 -70.79963 1565 ft 4 kts 286°
2026-04-20 14:16 -33.39330 -70.79989 1565 ft 4 kts 296°
2026-04-20 14:16 -33.39312 -70.80024 1566 ft 6 kts 307°
2026-04-20 14:16 -33.39270 -70.80054 1566 ft 8 kts 345°
2026-04-20 14:16 -33.39203 -70.80061 1566 ft 11 kts 359°
2026-04-20 14:17 -33.39117 -70.80068 1566 ft 14 kts 356°
2026-04-20 14:17 -33.39020 -70.80073 1567 ft 13 kts 358°
2026-04-20 14:17 -33.38944 -70.80077 1567 ft 9 kts 358°
2026-04-20 14:17 -33.38877 -70.80080 1567 ft 12 kts 358°
2026-04-20 14:18 -33.38781 -70.80085 1567 ft 16 kts 357°
2026-04-20 14:18 -33.38676 -70.80091 1567 ft 14 kts 357°
2026-04-20 14:18 -33.38589 -70.80095 1567 ft 11 kts 358°
2026-04-20 14:18 -33.38520 -70.80100 1567 ft 11 kts 356°
2026-04-20 14:19 -33.38424 -70.80106 1567 ft 17 kts 358°
2026-04-20 14:19 -33.38308 -70.80111 1566 ft 16 kts 357°
2026-04-20 14:19 -33.38208 -70.80116 1566 ft 13 kts 358°
2026-04-20 14:19 -33.38127 -70.80120 1566 ft 10 kts 358°
2026-04-20 14:20 -33.38062 -70.80124 1566 ft 8 kts 357°
2026-04-20 14:20 -33.38008 -70.80127 1566 ft 7 kts 357°
2026-04-20 14:20 -33.37961 -70.80129 1566 ft 6 kts 357°
2026-04-20 14:20 -33.37919 -70.80132 1566 ft 6 kts 358°
2026-04-20 14:21 -33.37882 -70.80134 1566 ft 5 kts 357°
2026-04-20 14:21 -33.37851 -70.80135 1566 ft 4 kts 358°
2026-04-20 14:21 -33.37810 -70.80137 1566 ft 8 kts 358°
2026-04-20 14:21 -33.37730 -70.80141 1566 ft 14 kts 357°
2026-04-20 14:22 -33.37637 -70.80147 1567 ft 13 kts 358°
2026-04-20 14:22 -33.37529 -70.80152 1566 ft 19 kts 356°
2026-04-20 14:22 -33.37400 -70.80158 1567 ft 18 kts 356°
2026-04-20 14:22 -33.37275 -70.80167 1567 ft 18 kts 359°
2026-04-20 14:23 -33.37186 -70.80167 1567 ft 11 kts 359°
2026-04-20 14:23 -33.37124 -70.80203 1567 ft 9 kts 310°
2026-04-20 14:23 -33.37110 -70.80233 1569 ft 0 kts 294°
2026-04-20 14:24 -33.37107 -70.80242 1569 ft 2 kts 292°
2026-04-20 14:24 -33.37101 -70.80272 1571 ft 5 kts 278°
2026-04-20 14:24 -33.37108 -70.80317 1573 ft 6 kts 249°
2026-04-20 14:25 -33.37149 -70.80366 1574 ft 11 kts 202°
2026-04-20 14:25 -33.37207 -70.80373 1573 ft 0 kts 177°
2026-04-20 14:26 -33.37317 -70.80367 1573 ft 48 kts 177°
2026-04-20 14:27 -33.37886 -70.80337 1573 ft 113 kts 177°
2026-04-20 14:27 -33.38849 -70.80286 1609 ft 159 kts 175°
2026-04-20 14:27 -33.39936 -70.80226 2328 ft 160 kts 178°
2026-04-20 14:27 -33.41148 -70.80173 2681 ft 183 kts 179°
2026-04-20 14:28 -33.42504 -70.80102 2996 ft 208 kts 178°
2026-04-20 14:28 -33.44080 -70.80015 3444 ft 233 kts 178°
2026-04-20 14:28 -33.45789 -70.79917 3948 ft 258 kts 177°
2026-04-20 14:28 -33.47639 -70.79809 4718 ft 271 kts 177°
2026-04-20 14:29 -33.49578 -70.79698 5656 ft 280 kts 177°
2026-04-20 14:29 -33.51547 -70.79569 6571 ft 287 kts 178°
2026-04-20 14:29 -33.53570 -70.79417 7433 ft 295 kts 179°
2026-04-20 14:29 -33.55606 -70.79724 8299 ft 297 kts 204°
2026-04-20 14:30 -33.57369 -70.80983 8801 ft 294 kts 229°
2026-04-20 14:30 -33.58500 -70.82944 8959 ft 282 kts 255°
2026-04-20 14:30 -33.58769 -70.85199 8996 ft 269 kts 281°
2026-04-20 14:30 -33.58388 -70.87378 8998 ft 267 kts 289°
2026-04-20 14:31 -33.57904 -70.89523 9000 ft 266 kts 289°
2026-04-20 14:31 -33.57258 -70.91583 9000 ft 263 kts 296°
2026-04-20 14:31 -33.56747 -70.93706 8999 ft 267 kts 285°
2026-04-20 14:31 -33.56624 -70.95963 8999 ft 275 kts 266°
2026-04-20 14:32 -33.57059 -70.98185 8999 ft 278 kts 260°
2026-04-20 14:32 -33.57584 -71.00422 9085 ft 281 kts 259°
2026-04-20 14:32 -33.58128 -71.02680 10043 ft 282 kts 260°
2026-04-20 14:32 -33.58637 -71.05017 10542 ft 301 kts 262°
2026-04-20 14:33 -33.58991 -71.07556 11081 ft 309 kts 276°
2026-04-20 14:33 -33.58530 -71.10020 11897 ft 304 kts 299°
2026-04-20 14:33 -33.57253 -71.12001 12802 ft 303 kts 321°
2026-04-20 14:33 -33.55385 -71.13166 13721 ft 310 kts 342°
2026-04-20 14:34 -33.53198 -71.13316 14541 ft 323 kts
2026-04-20 14:34 -33.50962 -71.12867 15327 ft 326 kts
2026-04-20 14:34 -33.48730 -71.13058 16062 ft 321 kts 341°
2026-04-20 14:34 -33.46597 -71.13868 16843 ft 323 kts 336°
2026-04-20 14:35 -33.44500 -71.14867 17626 ft 326 kts 333°
2026-04-20 14:35 -33.42390 -71.15928 18416 ft 330 kts 333°
2026-04-20 14:35 -33.40982 -71.16640 18878 ft 333 kts 333°
2026-04-20 14:35 -33.38820 -71.17734 19624 ft 336 kts 332°
2026-04-20 14:36 -33.36614 -71.18852 20429 ft 339 kts 332°
2026-04-20 14:36 -33.34432 -71.19960 21203 ft 342 kts 332°
2026-04-20 14:36 -33.32232 -71.21079 21925 ft 345 kts 332°
2026-04-20 14:36 -33.29958 -71.22237 22695 ft 349 kts 332°
2026-04-20 14:37 -33.27787 -71.23343 23435 ft 353 kts 331°
2026-04-20 14:37 -33.25521 -71.24498 24138 ft 356 kts 331°
2026-04-20 14:37 -33.23225 -71.25669 24791 ft 360 kts 332°
2026-04-20 14:37 -33.20873 -71.26752 25428 ft 364 kts 333°
2026-04-20 14:38 -33.18475 -71.27807 26076 ft 368 kts 333°
2026-04-20 14:38 -33.16058 -71.28868 26710 ft 371 kts 333°
2026-04-20 14:38 -33.13621 -71.29926 27332 ft 375 kts 335°
2026-04-20 14:38 -33.10990 -71.30446 27914 ft 395 kts 353°
2026-04-20 14:39 -33.08210 -71.29891 28510 ft 418 kts 10°
2026-04-20 14:39 -33.05557 -71.28260 29086 ft 443 kts 27°
2026-04-20 14:39 -33.03288 -71.25646 29609 ft 467 kts 45°
2026-04-20 14:39 -33.01548 -71.22298 30089 ft 481 kts 53°
2026-04-20 14:40 -32.99623 -71.19104 30502 ft 466 kts 34°
2026-04-20 14:40 -32.97044 -71.16948 30866 ft 442 kts 13°
2026-04-20 14:40 -32.94147 -71.16097 31255 ft 415 kts 351°
2026-04-20 14:40 -32.91380 -71.16593 31647 ft 393 kts 332°
2026-04-20 14:41 -32.88836 -71.17740 32049 ft 396 kts 333°
2026-04-20 14:41 -32.86185 -71.18639 32191 ft 400 kts 338°
2026-04-20 14:41 -32.83492 -71.19310 32214 ft 389 kts 341°
2026-04-20 14:41 -32.80787 -71.19444 32217 ft 395 kts 353°
2026-04-20 14:42 -32.75318 -71.19193 32209 ft 385 kts 348°
2026-04-20 14:42 -32.69979 -71.19351 32204 ft 382 kts 347°
2026-04-20 14:43 -32.64662 -71.19564 32202 ft 383 kts 347°
2026-04-20 14:43 -32.59319 -71.19696 32205 ft 385 kts 348°
2026-04-20 14:44 -32.53953 -71.19778 32210 ft 385 kts 348°
2026-04-20 14:44 -32.48594 -71.19857 32208 ft 385 kts 347°
2026-04-20 14:45 -32.43241 -71.19950 32207 ft 384 kts 347°
2026-04-20 14:45 -32.37903 -71.20054 32211 ft 383 kts 347°
2026-04-20 14:46 -32.32575 -71.20152 32207 ft 383 kts 347°
2026-04-20 14:46 -32.27245 -71.20252 32201 ft 383 kts 347°
2026-04-20 14:47 -32.21917 -71.20345 32203 ft 383 kts 347°
2026-04-20 14:48 -32.13936 -71.20494 32200 ft 382 kts 347°
2026-04-20 14:48 -32.08626 -71.20590 32198 ft 382 kts 347°
2026-04-20 14:49 -32.03315 -71.20680 32198 ft 382 kts 346°
2026-04-20 14:49 -31.98009 -71.20773 32180 ft 381 kts 346°
2026-04-20 14:50 -31.92706 -71.20869 32185 ft 381 kts 346°
2026-04-20 14:50 -31.87355 -71.20965 32188 ft 381 kts 346°
2026-04-20 14:51 -31.82011 -71.21067 32186 ft 381 kts 346°
2026-04-20 14:51 -31.76738 -71.21131 32180 ft 383 kts 348°
2026-04-20 14:52 -31.71328 -71.20858 31504 ft 389 kts 351°
2026-04-20 14:52 -31.68642 -71.20647 31077 ft 385 kts 351°
2026-04-20 14:52 -31.65996 -71.20430 30644 ft 374 kts 351°
2026-04-20 14:52 -31.63434 -71.20226 30242 ft 365 kts 350°
2026-04-20 14:53 -31.60912 -71.20051 29801 ft 361 kts 350°
2026-04-20 14:53 -31.58424 -71.19899 29428 ft 356 kts 350°
2026-04-20 14:53 -31.55951 -71.19757 29049 ft 353 kts 350°
2026-04-20 14:53 -31.53482 -71.19617 28687 ft 350 kts 350°
2026-04-20 14:54 -31.51057 -71.19480 28323 ft 348 kts 350°
2026-04-20 14:54 -31.48643 -71.19341 27959 ft 347 kts 351°
2026-04-20 14:54 -31.46241 -71.19198 27598 ft 344 kts 351°
2026-04-20 14:54 -31.43858 -71.19052 27243 ft 341 kts 351°
2026-04-20 14:55 -31.41495 -71.18906 26886 ft 339 kts 351°
2026-04-20 14:55 -31.39142 -71.18762 26528 ft 337 kts 352°
2026-04-20 14:55 -31.36809 -71.18622 26172 ft 334 kts 352°
2026-04-20 14:55 -31.34495 -71.18486 25806 ft 332 kts 352°
2026-04-20 14:56 -31.32194 -71.18351 25434 ft 331 kts 352°
2026-04-20 14:56 -31.29870 -71.18214 25066 ft 329 kts 352°
2026-04-20 14:56 -31.27586 -71.18075 24681 ft 329 kts 353°
2026-04-20 14:56 -31.25303 -71.17937 24298 ft 328 kts 353°
2026-04-20 14:57 -31.23026 -71.17800 23915 ft 328 kts 353°
2026-04-20 14:57 -31.20754 -71.17664 23490 ft 327 kts 353°
2026-04-20 14:57 -31.18485 -71.17530 23087 ft 324 kts 353°
2026-04-20 14:57 -31.16240 -71.17395 22693 ft 322 kts 354°
2026-04-20 14:58 -31.14770 -71.17305 22433 ft 319 kts 354°
2026-04-20 14:58 -31.12561 -71.17170 22047 ft 316 kts 354°
2026-04-20 14:58 -31.10370 -71.17039 21664 ft 314 kts 354°
2026-04-20 14:58 -31.08192 -71.16909 21283 ft 312 kts 354°
2026-04-20 14:59 -31.05994 -71.16779 20905 ft 311 kts 354°
2026-04-20 14:59 -31.03836 -71.16652 20518 ft 310 kts 354°
2026-04-20 14:59 -31.01689 -71.16523 20142 ft 308 kts 355°
2026-04-20 14:59 -30.99577 -71.16394 19771 ft 308 kts 355°
2026-04-20 15:00 -30.97411 -71.16263 19390 ft 306 kts 355°
2026-04-20 15:00 -30.95289 -71.16134 19016 ft 305 kts 355°
2026-04-20 15:00 -30.93150 -71.16007 18687 ft 310 kts 356°
2026-04-20 15:00 -30.90994 -71.15878 18340 ft 310 kts 356°
2026-04-20 15:01 -30.88845 -71.15749 17974 ft 308 kts 356°
2026-04-20 15:01 -30.86708 -71.15622 17641 ft 307 kts 356°
2026-04-20 15:01 -30.84584 -71.15498 17307 ft 305 kts 357°
2026-04-20 15:01 -30.82440 -71.15371 16968 ft 303 kts 357°
2026-04-20 15:02 -30.80341 -71.15248 16633 ft 301 kts 357°
2026-04-20 15:02 -30.78247 -71.15123 16305 ft 300 kts 358°
2026-04-20 15:02 -30.76169 -71.14999 15976 ft 298 kts 358°
2026-04-20 15:02 -30.74100 -71.14873 15662 ft 297 kts 358°
2026-04-20 15:03 -30.72041 -71.14747 15335 ft 296 kts 358°
2026-04-20 15:03 -30.69983 -71.14622 15009 ft 294 kts 359°
2026-04-20 15:03 -30.67950 -71.14498 14686 ft 292 kts 359°
2026-04-20 15:03 -30.65897 -71.14374 14363 ft 290 kts 359°
2026-04-20 15:04 -30.63885 -71.14255 14047 ft 288 kts 359°
2026-04-20 15:04 -30.61884 -71.14139 13702 ft 286 kts 360°
2026-04-20 15:04 -30.59903 -71.14024 13391 ft 284 kts 360°
2026-04-20 15:04 -30.57931 -71.13907 13086 ft 283 kts 360°
2026-04-20 15:05 -30.55968 -71.13791 12771 ft 282 kts
2026-04-20 15:05 -30.54007 -71.13675 12466 ft 281 kts
2026-04-20 15:05 -30.52053 -71.13560 12157 ft 281 kts
2026-04-20 15:05 -30.50104 -71.13445 11842 ft 279 kts
2026-04-20 15:06 -30.48168 -71.13332 11544 ft 278 kts
2026-04-20 15:06 -30.46260 -71.13219 11246 ft 277 kts
2026-04-20 15:06 -30.44304 -71.13104 10943 ft 277 kts
2026-04-20 15:06 -30.42395 -71.12989 10517 ft 279 kts
2026-04-20 15:07 -30.40466 -71.12870 10228 ft 276 kts
2026-04-20 15:07 -30.38555 -71.12753 9874 ft 274 kts
2026-04-20 15:07 -30.36664 -71.12639 9657 ft 270 kts
2026-04-20 15:07 -30.34786 -71.12526 9521 ft 270 kts
2026-04-20 15:08 -30.32911 -71.12416 9396 ft 270 kts
2026-04-20 15:08 -30.31020 -71.12305 9265 ft 270 kts
2026-04-20 15:08 -30.29159 -71.12195 9135 ft 270 kts
2026-04-20 15:08 -30.27260 -71.12086 8985 ft 268 kts
2026-04-20 15:09 -30.25405 -71.11978 8698 ft 266 kts
2026-04-20 15:09 -30.23560 -71.11866 8362 ft 265 kts
2026-04-20 15:09 -30.21712 -71.11721 8006 ft 267 kts
2026-04-20 15:09 -30.19862 -71.11557 7646 ft 268 kts
2026-04-20 15:10 -30.17997 -71.11387 7283 ft 269 kts
2026-04-20 15:10 -30.16127 -71.11218 6921 ft 270 kts
2026-04-20 15:10 -30.14178 -71.11047 6540 ft 271 kts
2026-04-20 15:10 -30.12275 -71.10769 6147 ft 270 kts 15°
2026-04-20 15:11 -30.10595 -71.09868 5783 ft 260 kts 31°
2026-04-20 15:11 -30.09088 -71.08810 5441 ft 250 kts 31°
2026-04-20 15:11 -30.07608 -71.07775 5117 ft 240 kts 31°
2026-04-20 15:11 -30.06209 -71.06802 4809 ft 230 kts 31°
2026-04-20 15:12 -30.04850 -71.05857 4501 ft 221 kts 31°
2026-04-20 15:12 -30.03524 -71.05038 4215 ft 212 kts 20°
2026-04-20 15:12 -30.02113 -71.04645 3939 ft 207 kts
2026-04-20 15:12 -30.01163 -71.04632 3785 ft 205 kts 354°
2026-04-20 15:13 -29.99334 -71.05167 3391 ft 199 kts 334°
2026-04-20 15:13 -29.98170 -71.05992 3108 ft 195 kts 320°
2026-04-20 15:13 -29.97243 -71.07100 2844 ft 188 kts 306°
2026-04-20 15:13 -29.96610 -71.08364 2580 ft 175 kts 295°
2026-04-20 15:14 -29.96102 -71.09564 2373 ft 153 kts 296°
2026-04-20 15:14 -29.95655 -71.10609 2159 ft 142 kts 297°
2026-04-20 15:14 -29.95223 -71.11614 1973 ft 138 kts 297°
2026-04-20 15:14 -29.94800 -71.12599 1784 ft 136 kts 297°
2026-04-20 15:15 -29.94382 -71.13573 1595 ft 135 kts 296°
2026-04-20 15:15 -29.93963 -71.14546 1412 ft 135 kts 297°
2026-04-20 15:15 -29.93683 -71.15197 1282 ft 134 kts 297°
2026-04-20 15:15 -29.93278 -71.16139 1100 ft 132 kts 296°
2026-04-20 15:16 -29.92738 -71.17394 848 ft 130 kts 296°
2026-04-20 15:16 -29.92465 -71.18027 732 ft 130 kts 296°
2026-04-20 15:16 -29.92068 -71.18961 546 ft 130 kts 295°
2026-04-20 15:16 -29.91706 -71.19807 475 ft 93 kts 296°
2026-04-20 15:17 -29.91548 -71.20176 478 ft 20 kts 296°
2026-04-20 15:17 -29.91527 -71.20252 479 ft 10 kts 253°
2026-04-20 15:17 -29.91576 -71.20288 475 ft 6 kts 204°
2026-04-20 15:17 -29.91618 -71.20315 480 ft 4 kts 238°
2026-04-20 15:18 -29.91605 -71.20351 476 ft 6 kts 306°
2026-04-20 15:18 -29.91584 -71.20391 479 ft 7 kts 297°
2026-04-20 15:18 -29.91598 -71.20435 475 ft 3 kts 187°
2026-04-20 15:18 -29.91615 -71.20440 480 ft 1 kts 201°
2026-04-20 15:19 -29.91618 -71.20442 477 ft 0 kts 208°